Weather History for Greenville/Spartanburg, SC

Change the Weather History Date:

Saturday, February 2, 2013

  Actual Average Record
Temperature  
Mean Temperature 34 °F 44 °F  
Max Temperature 47 °F 54 °F 77 °F (1989)
Min Temperature 21 °F 33 °F 9 °F (1900)
Degree Days  
Heating Degree Days 31 21  
Month to date heating degree days 61 43  
Since 1 July heating degree days 1659 1953  
Cooling Degree Days 0 0  
Month to date cooling degree days 0 0  
Year to date cooling degree days 0 0  
Moisture  
Dew Point 22 °F    
Average Humidity 57    
Maximum Humidity 92    
Minimum Humidity 21    
Precipitation  
Precipitation 0.02 in 0.14 in 2.41 in (1902)
Month to date precipitation 0.02 0.27  
Year to date precipitation 5.29 4.09  
Snow  
Snow T in 0.10 in 1.40 in (1936)
Month to date snowfall T 0.1  
Since 1 July snowfall T 2.9  
Snow Depth 0.00 in    
Sea Level Pressure  
Sea Level Pressure 30.21 in    
Wind  
Wind Speed 7 mph (SW)    
Max Wind Speed 22 mph    
Max Gust Speed 26 mph    
Visibility 10 miles    
Events Rain    
T = Trace of Precipitation, MM = Missing Value Source: NWS Daily Summary

Daily Weather History Graph

Daily Weather History Graph

Search for Another Location

Airport:

Trip Planner

Search our weather history database for the weather conditions in past years. The results will help you decide how hot, cold, wet, or windy it might be!

Date:

Astronomy

Feb. 02, 2013 Rise Set
Actual Time 7:26 AM EST 5:59 PM EST
Civil Twilight 7:00 AM EST 6:25 PM EST
Nautical Twilight 6:29 AM EST 6:55 PM EST
Astronomical Twilight 6:00 AM EST 7:25 PM EST
Moon No Moon Rise 10:54 AM EST (2/2)
Length of Visible Light 11h 25m
Length of Day
10h 32m
Waning Gibbous, 60% of the Moon is Illuminated
Feb 2
Waning Gibbous
Feb 3
Last Quarter
Feb 10
New
Feb 17
First Quarter
Feb 25
Full

Hourly Weather History & Observations

Time (EST) Temp. Windchill Dew Point Humidity Pressure Visibility Wind Dir Wind Speed Gust Speed Precip Events Conditions
12:53 AM 26.1 °F - 8.1 °F 47% 30.34 in 10.0 mi Calm Calm - N/A   Clear
1:53 AM 23.0 °F - 15.1 °F 72% 30.35 in 10.0 mi Calm Calm - N/A   Clear
2:53 AM 24.1 °F - 14.0 °F 65% 30.35 in 10.0 mi Calm Calm - N/A   Clear
3:53 AM 24.8 °F - 10.4 °F 54% 30.32 in 10.0 mi Calm Calm - N/A   Clear
4:53 AM 23.0 °F - 10.9 °F 60% 30.33 in 10.0 mi Calm Calm - N/A   Clear
5:53 AM 21.9 °F - 15.1 °F 75% 30.35 in 10.0 mi Calm Calm - N/A   Clear
6:53 AM 21.9 °F - 15.1 °F 75% 30.36 in 10.0 mi Calm Calm - N/A   Clear
7:53 AM 23.0 °F - 14.0 °F 68% 30.37 in 10.0 mi Calm Calm - N/A   Clear
8:53 AM 28.9 °F 25.2 °F 10.0 °F 45% 30.36 in 10.0 mi NE 3.5 mph - N/A   Clear
9:53 AM 30.9 °F - 10.0 °F 42% 30.35 in 10.0 mi Calm Calm - N/A   Clear
10:53 AM 35.1 °F 28.6 °F 10.0 °F 35% 30.32 in 10.0 mi South 8.1 mph - N/A   Clear
11:53 AM 37.9 °F 32.7 °F 9.0 °F 30% 30.27 in 10.0 mi SW 6.9 mph - N/A   Scattered Clouds
12:53 PM 39.9 °F 33.9 °F 10.0 °F 29% 30.25 in 10.0 mi WSW 9.2 mph - N/A   Overcast
1:53 PM 44.1 °F 38.1 °F 9.0 °F 24% 30.19 in 10.0 mi SSW 11.5 mph 20.7 mph N/A   Mostly Cloudy
2:53 PM 46.9 °F - 9.0 °F 21% 30.16 in 10.0 mi WSW 13.8 mph - N/A   Mostly Cloudy
3:53 PM 41.0 °F 35.8 °F 28.9 °F 62% 30.13 in 10.0 mi WSW 8.1 mph - 0.00 in Rain Light Rain
4:24 PM 41.0 °F 36.4 °F 26.6 °F 57% 30.11 in 10.0 mi WSW 6.9 mph - 0.00 in   Overcast
4:53 PM 42.1 °F 38.4 °F 26.1 °F 53% 30.12 in 10.0 mi West 5.8 mph - 0.00 in   Mostly Cloudy
5:53 PM 41.0 °F 35.2 °F 28.9 °F 62% 30.11 in 10.0 mi WSW 9.2 mph - N/A   Overcast
6:53 PM 37.9 °F 30.0 °F 33.1 °F 83% 30.12 in 10.0 mi WSW 12.7 mph - 0.00 in Rain Light Rain
7:30 PM 37.4 °F 29.8 °F 35.6 °F 93% 30.11 in 10.0 mi WSW 11.5 mph - 0.00 in Rain Light Rain
7:53 PM 37.0 °F 28.5 °F 35.1 °F 93% 30.12 in 9.0 mi SW 13.8 mph 20.7 mph 0.01 in Rain Light Rain
8:02 PM 35.6 °F 26.6 °F 35.6 °F 100% 30.10 in 10.0 mi SW 13.8 mph - 0.00 in Rain Light Rain
8:53 PM 36.0 °F 29.6 °F 35.1 °F 97% 30.12 in 8.0 mi SW 8.1 mph 18.4 mph 0.01 in   Drizzle
9:53 PM 37.0 °F 27.7 °F 35.1 °F 93% 30.10 in 10.0 mi WSW 16.1 mph 24.2 mph 0.00 in   Overcast
10:03 PM 37.4 °F 28.5 °F 35.6 °F 93% 30.08 in 10.0 mi WSW 15.0 mph - N/A   Overcast
10:40 PM 37.4 °F 29.8 °F 35.6 °F 93% 30.06 in 10.0 mi WSW 11.5 mph 20.7 mph N/A   Mostly Cloudy
10:53 PM 37.9 °F 30.9 °F 36.0 °F 93% 30.07 in 10.0 mi SW 10.4 mph 18.4 mph N/A   Overcast
11:13 PM 37.4 °F 29.8 °F 35.6 °F 93% 30.05 in 10.0 mi WSW 11.5 mph 23.0 mph N/A   Overcast
11:44 PM 37.4 °F 28.9 °F 35.6 °F 93% 30.04 in 10.0 mi WSW 13.8 mph 19.6 mph N/A   Mostly Cloudy
11:53 PM 37.9 °F 29.6 °F 36.0 °F 93% 30.04 in 10.0 mi WSW 13.8 mph - N/A   Overcast